シャルネツキー彗星

C/2024 N3 ( Sarneczky )

English version
Home page
Updated on September 3, 2024

---------------------------------------------------------------------

・ プロフィール

発見日 2024年7月8日
発見光度 19.6等
発見者 Krisztian Sarneczky (Piszkesteto Observatory in Hungary)

・ 写真集

・ 軌道要素

Epoch 2024 Oct. 17.0 TT = JDT 2460600.5
T 2025 Apr. 11.32910 TT                                 Rudenko
q   5.0147549            (2000.0)            P               Q
z  -0.0001682      Peri.   86.86990     -0.01493752     -0.12965352
 +/-0.0000116      Node    82.60873     -0.34479079     -0.93007281
e   1.0008436      Incl.   88.72913     +0.93856070     -0.34373615
>From 127 observations 2023 Oct. 9-2024 Aug. 31, mean residual 0".5.

・ 光度変化

        m1 = 8.0 + 5 logΔ + 10.0 log r

---------------------------------------------------------------------

軌道要素はM.P.E.C. 2024-R10に掲載されたものです。
光度グラフはComet for Windowsで作成したものです。

---------------------------------------------------------------------

Copyright(C) Seiichi Yoshida (comet@aerith.net). All rights reserved.